Zurück zum Katalog

GAOFEN 2

AktivWissenschaftSSO
NORAD 40118·PAYLOAD·🇨🇳 China

Gestartet Aug 19, 2014 von Taiyuan Satellite Launch Center

Loading…

Nächste Überflüge (nächste 24 Stunden)

TLE

AktuellSource: Space-Track

Epoche: Sep 14, 2026, 15:11 UTC

1 40118U 14049A   26257.63287757  .00000648  00000-0  90495-4 0  9998
2 40118  98.0026 321.7183 0006272 312.3601  47.7080 14.80999721652479

Verfolge GAOFEN 2 in Echtzeit mit AllMySat

Download on the App Store